TimeEDT,TemperatureF,Dew PointF,Humidity,Sea Level PressureIn,VisibilityMPH,Wind Direction,Wind SpeedMPH,Gust SpeedMPH,PrecipitationIn,Events,Conditions,WindDirDegrees,DateUTC
12:23 AM,66.9,64.9,93,29.76,9.0,SE,4.6,-,N/A,,Mostly Cloudy,130,2012-10-20 04:23:00
12:25 AM,66.9,64.9,93,29.76,9.0,SE,3.5,-,N/A,Thunderstorm,Mostly Cloudy,140,2012-10-20 04:25:00
12:41 AM,68.0,64.9,90,29.77,3.0,West,4.6,-,0.04,Rain-Thunderstorm,Rain,270,2012-10-20 04:41:00
12:44 AM,68.0,64.9,90,29.77,2.5,West,3.5,-,0.09,Rain-Thunderstorm,Thunderstorms and Rain,260,2012-10-20 04:44:00
12:50 AM,69.8,66.2,88,29.77,1.2,Calm,Calm,-,0.17,Rain-Thunderstorm,Heavy Thunderstorms and Rain,0,2012-10-20 04:50:00
12:52 AM,69.1,66.0,90,29.77,1.0,West,3.5,-,0.27,Rain-Thunderstorm,Heavy Thunderstorms and Rain,260,2012-10-20 04:52:00
12:57 AM,68.0,66.0,93,29.77,0.8,Calm,Calm,-,0.12,Rain-Thunderstorm,Heavy Rain,0,2012-10-20 04:57:00
1:03 AM,68.0,66.0,93,29.76,1.2,South,3.5,-,0.20,Rain-Thunderstorm,Heavy Thunderstorms and Rain,170,2012-10-20 05:03:00
1:05 AM,68.0,66.0,93,29.76,2.0,North,-9999.0,-,0.23,Rain-Thunderstorm,Heavy Thunderstorms and Rain,0,2012-10-20 05:05:00
1:12 AM,66.9,64.0,90,29.76,3.0,SSE,8.1,-,0.25,Rain-Thunderstorm,Thunderstorms and Rain,160,2012-10-20 05:12:00
1:23 AM,66.9,64.0,90,29.75,10.0,Variable,4.6,-,0.25,Rain-Thunderstorm,Light Rain,0,2012-10-20 05:23:00
1:32 AM,66.9,64.0,90,29.75,10.0,South,5.8,-,0.25,Rain,Light Rain,170,2012-10-20 05:32:00
1:52 AM,66.0,64.0,93,29.73,10.0,ESE,4.6,-,0.26,,Mostly Cloudy,120,2012-10-20 05:52:00
1:58 AM,66.0,64.0,93,29.73,10.0,SE,6.9,-,N/A,,Mostly Cloudy,130,2012-10-20 05:58:00
2:10 AM,66.9,64.0,90,29.72,10.0,SE,6.9,-,N/A,,Overcast,130,2012-10-20 06:10:00
2:21 AM,66.9,64.9,93,29.70,10.0,SE,6.9,-,N/A,,Overcast,140,2012-10-20 06:21:00
2:30 AM,66.9,64.9,93,29.70,9.0,SE,8.1,-,N/A,,Overcast,130,2012-10-20 06:30:00
2:52 AM,68.0,64.9,90,29.70,10.0,SSE,5.8,-,N/A,,Mostly Cloudy,150,2012-10-20 06:52:00
3:52 AM,68.0,64.0,87,29.72,10.0,WSW,4.6,-,N/A,,Mostly Cloudy,240,2012-10-20 07:52:00
4:22 AM,68.0,63.0,84,29.73,10.0,SW,8.1,-,N/A,,Mostly Cloudy,230,2012-10-20 08:22:00
4:52 AM,66.9,63.0,87,29.73,10.0,SSE,5.8,-,0.00,Rain,Light Rain,150,2012-10-20 08:52:00
5:52 AM,66.0,64.0,93,29.70,9.0,SE,5.8,-,0.00,Rain,Light Rain,140,2012-10-20 09:52:00
6:14 AM,66.0,64.0,93,29.69,4.0,SSE,3.5,-,0.01,Rain,Light Rain,150,2012-10-20 10:14:00
6:35 AM,66.0,64.0,93,29.69,5.0,SSE,3.5,-,0.01,,Overcast,150,2012-10-20 10:35:00
6:52 AM,66.0,64.0,93,29.69,5.0,SSE,3.5,-,0.01,,Overcast,150,2012-10-20 10:52:00
7:42 AM,66.0,64.0,93,29.68,10.0,ESE,3.5,-,N/A,,Overcast,120,2012-10-20 11:42:00
7:52 AM,66.0,64.0,93,29.68,10.0,SE,3.5,-,N/A,,Overcast,130,2012-10-20 11:52:00
8:17 AM,66.9,64.9,93,29.69,9.0,SE,4.6,-,N/A,,Overcast,140,2012-10-20 12:17:00
8:26 AM,66.9,64.9,93,29.69,7.0,South,3.5,-,N/A,,Overcast,170,2012-10-20 12:26:00
8:34 AM,66.9,64.9,93,29.69,8.0,South,3.5,-,N/A,,Overcast,180,2012-10-20 12:34:00
8:41 AM,66.9,64.9,93,29.69,6.0,Calm,Calm,-,N/A,,Overcast,0,2012-10-20 12:41:00
8:52 AM,66.9,64.9,93,29.69,8.0,Variable,3.5,-,N/A,,Overcast,0,2012-10-20 12:52:00
9:30 AM,66.9,64.9,93,29.68,9.0,Variable,4.6,-,N/A,,Overcast,0,2012-10-20 13:30:00
9:52 AM,68.0,64.9,90,29.68,10.0,SSE,4.6,-,N/A,,Overcast,150,2012-10-20 13:52:00
10:03 AM,68.0,64.9,90,29.67,10.0,SSE,4.6,-,N/A,,Overcast,160,2012-10-20 14:03:00
10:33 AM,66.9,64.0,90,29.68,4.0,South,9.2,-,N/A,,Overcast,180,2012-10-20 14:33:00
10:52 AM,66.9,64.0,90,29.68,8.0,South,5.8,-,N/A,,Overcast,190,2012-10-20 14:52:00
11:05 AM,66.9,64.0,90,29.68,6.0,SSW,8.1,-,N/A,,Overcast,210,2012-10-20 15:05:00
11:52 AM,70.0,64.0,81,29.67,10.0,SW,8.1,-,N/A,,Overcast,230,2012-10-20 15:52:00
12:52 PM,68.0,61.0,78,29.65,10.0,SSW,9.2,-,N/A,,Mostly Cloudy,200,2012-10-20 16:52:00
1:00 PM,69.1,61.0,75,29.65,10.0,SSW,10.4,-,N/A,,Scattered Clouds,200,2012-10-20 17:00:00
1:07 PM,69.1,61.0,75,29.64,10.0,SSW,8.1,-,N/A,,Mostly Cloudy,200,2012-10-20 17:07:00
1:21 PM,70.0,61.0,73,29.64,10.0,Variable,5.8,-,N/A,,Mostly Cloudy,0,2012-10-20 17:21:00
1:30 PM,70.0,60.1,71,29.64,10.0,SW,8.1,-,N/A,,Scattered Clouds,230,2012-10-20 17:30:00
2:52 PM,73.0,55.9,55,29.63,10.0,SSW,6.9,-,N/A,,Clear,210,2012-10-20 18:52:00
3:52 PM,71.1,51.1,49,29.64,10.0,SSW,10.4,-,N/A,,Clear,200,2012-10-20 19:52:00
5:52 PM,63.0,55.9,78,29.65,10.0,SSW,8.1,-,N/A,,Clear,200,2012-10-20 21:52:00
6:52 PM,61.0,55.9,83,29.68,10.0,South,6.9,-,N/A,,Clear,190,2012-10-20 22:52:00
7:52 PM,60.1,55.9,86,29.69,10.0,South,6.9,-,N/A,,Clear,190,2012-10-20 23:52:00
8:52 PM,60.1,55.9,86,29.71,10.0,SW,5.8,-,N/A,,Clear,220,2012-10-21 00:52:00
9:52 PM,60.1,55.0,83,29.73,10.0,SW,6.9,-,N/A,,Clear,220,2012-10-21 01:52:00
10:52 PM,57.9,53.1,84,29.74,10.0,WSW,5.8,-,N/A,,Clear,250,2012-10-21 02:52:00